sat.trackr.live / text

‹ back to catalog

STARLINK-37324

NORAD 68749 · 2026-082X

PAYLOAD ACTIVE UNKNOWN

§ Identity

Operator
Country
US
Launch date
2026-04-15
Launch site
AFWTR
Launch vehicle
Mass (kg)
RCS (m²)

Purposes: comms

External: N2YO · Heavens-Above · Gunter

§ Orbital elements

Epoch: 2026-09-19T21:11:08.385216Z

Period
93.91 min
Inclination
97.2862°
Eccentricity
0.0002234
Mean motion
15.33450779 rev/d
Perigee alt
464.0 km
Apogee alt
467.1 km
Semi-major
6,843.7 km
B*
3.9575e-4
RAAN
125.0866°
Arg perigee
92.2139°
Mean anomaly
267.9359°
Rev number
2,421

§ Raw data

STARLINK-373241 68749U 26082X   26262.88273594  .00012726  00000+0  39575-3 0  99952 68749  97.2862 125.0866 0002234  92.2139 267.9359 15.33450779 24219

JSON: /api/v1/satellites/68749 · /tle

For live sub-satellite position, see the globe view (requires WebGL).

§ Visibility from observer

Set your observer location to see the next 7 days of passes ≥ 10°. The values pass through the URL so the page stays shareable.

No JS? Fill the form by hand. The geolocation button needs JavaScript.